PEGASUS DEB, 25442

Orbit data source: Space-Track

PEGASUS DEB, 25442 is space debris in LEO originally from a launch on Thu, 19 May 1994 UTC launched from the Air Force Western Test Range (AFWTR). Debris objects in space refer to the collection of defunct objects orbiting the Earth. Examples of debris include non-operational satellites, rocket bodies, and fragments generated from explosions, collisions, or faulty payload assembly.

Loading next visibility...
Identifier
25442, 1994-029ADX
Orbit
LEO
Country
Flag of USUS
Related business
Manufacturer
Unknown
Mission
Spacecraft
Bus & Motor
Unknown
Mass
Unknown
Launch date (UTC)
1994-05-19 (32 years ago)
Launch vehicle
Unknown
Launch site
Air Force Western Test Range (AFWTR)
Object type
Payload
Rocket body
Debris
Shape & HBR
Unknown shape, 0.1 m
Radar Cross Section
Small (<0.1 m²)

Expand to show TLE details & history
Last TLE update: 2 days ago

TLE from 2 days ago
0 PEGASUS DEB
1 25442U 94029ADX 26164.17801335  .00003396  00000-0  49667-3 0  9994
2 25442  81.7514 324.7779 0198342 279.1288  78.7522 14.62910588551745
Epoch: 2026-06-13T04:16Z
TLE epoch observation values (Epoch: 2026-06-13T04:16:20.353Z)
Latitude
0.00001°
Longitude
-0.80374°
Altitude
662.142 km
Speed
7.539 km/s
True Right ascension
21h 39m 06s
True Declination
0° 00' 00"
Sunlit
Object was in daylight at epoch
Visualization orbit readout
Latitude
Unknown
Longitude
Unknown
Altitude
Unknown
Speed
Unknown
Apparent Right ascension
Unknown
Apparent Declination
Unknown
Sunlit
N/A
Visualization observer readout
Local Sidereal Time
06:58:10
Azimuth
Unknown
Elevation
Unknown
Doppler factor
Unknown
Orbital elements
Apogee altitude
820.879 km
Perigee altitude
540.86 km
Semi-major axis
7,059.006 km
Eccentricity
0.01983
Inclination
81.7514°
RAAN
324.7779°
Arg. of periapsis
279.1288°
True anomaly
80.99164°
Mean anomaly
78.7522°
Eccentric anomaly
79.8709°
Mean motion
3.65955 °/min
Orbital period
98.37 mins
BSTAR
0.00049667
Loading maneuver chart data...
Computing Atmospheric mass density...

Documentation

Showing up to 5 results
|